This demonstration page uses our WeatherBlox Daily Observations layout. Learn more.

Left ArrowRight Arrow

38.83388, -104.82136

Hourly Observations for January 18, 2015

Temp ( °F °C ) Dew Point ( °F °C ) Humidity (%) Winds ( mph kmh ) Pressure ( in mb ) Visibility ( mi km ) Precip ( " mm )
12:56 am 00:56 Clear 38 3.6 0 -17.9 19 19 SSE 6 9 30.10 1019 10 16 N/A
1:56 am 01:56 Clear 39 4 -4 -19.8 16 16 NW 6 9 30.04 1017 10 16 N/A
2:56 am 02:56 Mostly Cloudy 43 5.9 2 -16.8 18 18 N 10 17 30.03 1017 10 16 N/A
3:56 am 03:56 Mostly Cloudy 46 7.7 -3 -19.5 13 13 WSW 6 9 29.99 1016 10 16 N/A
4:56 am 04:56 Mostly Cloudy 45 7.2 2 -16.6 17 17 VRB 1 2 30.02 1017 10 16 N/A
5:56 am 05:56 Cloudy 49 9.2 -4 -20.1 11 11 S 5 7 30.01 1016 10 16 N/A
6:56 am 06:56 Cloudy 46 7.9 6 -14.3 19 19 VRB 2 4 30.08 1019 10 16 N/A
7:56 am 07:56 Mostly Cloudy 44 6.8 11 -11.9 25 25 WNW 6 9 30.09 1019 10 16 N/A
8:56 am 08:56 Sunny 51 10.6 10 -12 19 19 SSE 8 13 30.03 1017 10 16 N/A
9:56 am 09:56 Sunny 48 8.8 13 -10.6 24 24 SSE 6 9 30.06 1018 10 16 N/A
10:56 am 10:56 Sunny 51 10.4 13 -10.4 22 22 SE 7 11 30.05 1018 10 16 N/A
11:56 am 11:56 Sunny 53 11.8 15 -9.7 21 21 VRB 2 4 30.02 1017 10 16 N/A
12:56 pm 12:56 Sunny 54 12.2 15 -9.3 21 21 S 8 13 30.01 1016 10 16 N/A
1:56 pm 13:56 Sunny 52 11.1 20 -6.5 29 29 VRB 3 6 30.01 1016 10 16 N/A
2:56 pm 14:56 Mostly Sunny 53 11.4 19 -7.5 26 26 SSE 3 6 30.02 1017 10 16 N/A
3:56 pm 15:56 Partly Cloudy 53 11.6 17 -8.6 24 24 S 8 13 29.99 1016 10 16 N/A
4:56 pm 16:56 Mostly Sunny 49 9.5 18 -7.9 29 29 W 6 9 30.02 1017 10 16 N/A
5:56 pm 17:56 Mostly Clear 49 9.2 18 -7.6 30 30 W 6 9 30.04 1017 10 16 N/A
6:56 pm 18:56 Clear 50 10.1 13 -10.3 23 23 W 10 17 30.04 1017 10 16 N/A
7:56 pm 19:56 Clear 51 10.8 11 -11.5 20 20 WNW 15 24 30.04 1017 10 16 N/A
8:56 pm 20:56 Mostly Clear 47 8.2 16 -8.7 29 29 VRB 2 4 30.04 1017 10 16 N/A
9:56 pm 21:56 Mostly Cloudy 45 7.2 17 -8.2 33 33 W 5 7 30.05 1018 10 16 N/A
10:56 pm 22:56 Mostly Cloudy 45 7.2 17 -8.6 32 32 SW 3 6 30.02 1017 10 16 N/A
11:56 pm 23:56 Mostly Cloudy 44 6.6 17 -8.3 34 34 VRB 2 4 30.00 1016 10 16 N/A

Powered by AerisWeather